カタログに戻る

THORAD AGENA D DEB

運用中PO
NORAD 5060·DEBRIS·🇺🇸 United States

打ち上げ Apr 8, 1970 から Vandenberg Space Force Base

Loading…

次のパス (今後24時間)

TLE

最新Source: Space-Track

元期: Sep 14, 2026, 06:15 UTC

1 05060U 70025JE  26257.26042897  .00000547  00000-0  26616-3 0  9995
2 05060  99.9854 359.2607 0142885 262.1030  96.3903 14.18020345890185

AllMySatでTHORAD AGENA D DEBをリアルタイム追跡

Download on the App Store